KK4WAQ Weather Reports


time (UTC)temp
F
wind
direction
speed
knots
gust
knots
rain 1hr
in
rain 24hr
in
rain mn
in
humidity
%
barometer
mb
20260504081541 47 185 0.0 0.0 0.00 0.00 0.00 83 1015.6
20260504050017 50 212 0.0 0.0 0.00 0.00 0.00 74 1016.8
20260504044523 51 212 0.0 0.0 0.00 0.00 0.00 73 1016.8
20260504043018 51 212 0.0 0.0 0.00 0.00 0.00 72 1016.9
20260504041514 52 212 0.0 0.0 0.00 0.00 0.00 71 1017.0
20260504040019 52 212 0.0 0.0 0.00 0.00 0.00 69 1017.1
20260504034514 53 212 0.0 0.0 0.00 0.00 0.00 68 1017.1
20260504033013 53 212 0.0 0.0 0.00 0.00 0.00 68 1017.1
20260504031514 54 212 0.0 0.0 0.00 0.00 0.00 65 1017.0
20260504030016 55 212 0.0 0.0 0.00 0.00 0.00 64 1017.2
20260504024512 55 212 0.0 0.0 0.00 0.00 0.00 64 1017.2
20260504023012 55 212 0.0 0.0 0.00 0.00 0.00 62 1017.2
20260504021511 56 198 0.0 0.0 0.00 0.00 0.00 62 1017.0
20260504020017 56 198 0.0 0.0 0.00 0.00 0.00 62 1016.9
20260504014511 57 198 0.0 0.0 0.00 0.00 0.00 60 1016.8
20260504013011 59 198 0.0 0.0 0.00 0.00 0.00 57 1016.7
20260504011509 60 198 0.0 0.0 0.00 0.00 0.00 53 1016.7
20260504010009 62 198 0.0 0.0 0.00 0.00 0.00 50 1016.8
20260504004517 63 198 0.0 0.0 0.00 0.00 0.00 47 1016.7
20260504003008 64 187 0.0 0.0 0.00 0.00 0.00 45 1016.6
20260504001507 64 220 0.0 2.6 0.00 0.00 0.00 44 1016.8
20260504000006 65 225 0.0 0.0 0.00 0.00 0.00 44 1017.0
20260503234505 66 223 0.0 0.9 0.00 0.00 0.00 43 1017.1
20260503233005 66 215 0.0 1.7 0.00 0.00 0.00 41 1017.2
20260503231506 66 247 0.0 0.9 0.00 0.00 0.00 42 1017.0
20260503230003 67 215 0.0 0.0 0.00 0.00 0.00 43 1017.1
20260503224501 67 189 0.0 1.7 0.00 0.00 0.00 43 1017.3
20260503223059 67 182 0.0 0.9 0.00 0.00 0.00 42 1017.6
20260503221557 68 190 0.0 0.0 0.00 0.00 0.00 42 1017.8
20260503220055 69 209 0.9 2.6 0.00 0.00 0.00 42 1018.0
20260503214555 69 194 0.0 2.6 0.00 0.00 0.00 40 1018.1
20260503213101 70 192 0.0 0.9 0.00 0.00 0.00 39 1018.4
20260503211550 70 219 0.0 0.0 0.00 0.00 0.00 39 1018.6
20260503204546 70 242 0.0 0.0 0.00 0.00 0.00 41 1019.0
20260503203050 69 152 0.0 0.0 0.00 0.00 0.00 43 1019.4
20260503201542 69 257 0.0 7.0 0.00 0.00 0.00 42 1019.6
20260503200044 68 163 0.0 0.9 0.00 0.00 0.00 40 1019.8
20260503194536 67 232 0.0 0.9 0.00 0.00 0.00 43 1020.1
20260503193035 67 247 0.0 0.9 0.00 0.00 0.00 47 1020.5
20260503191530 67 200 0.0 1.7 0.00 0.00 0.00 44 1020.7
20260503190031 66 198 0.0 0.9 0.00 0.00 0.00 46 1020.9
20260503184525 65 92 0.0 0.9 0.00 0.00 0.00 44 1021.1
20260503183037 65 186 0.0 1.7 0.00 0.00 0.00 43 1021.4
20260503181521 65 184 0.0 1.7 0.00 0.00 0.00 44 1021.5
20260503180021 64 181 0.0 1.7 0.00 0.00 0.00 45 1021.4
20260503174517 63 257 0.0 0.9 0.00 0.00 0.00 44 1021.7
20260503173017 63 208 0.0 0.0 0.00 0.00 0.00 42 1022.0
20260503171514 63 159 0.0 0.0 0.00 0.00 0.00 46 1022.2